Погода в Невинномысске

Погода в Невинномысске : погода сейчас, прогноз погоды и архив. Всё, что Вы хотите узнать о погоде в Невинномысске!

Поиск расширенной информации на нашем сайте:

Другие новости

Новости СМИ2

Главная страница сайта

Новости сайта

02.10.2013

Напоминаем, что на нашем новом сайте вы можете получить высокодетализированные прогнозы погоды по пунктам России, СНГ и мира (включающие важные для авиации метеовеличины, такие как направление и скорость ветра, видимость, явления погоды, количество и форма облачности, нижняя и верхняя граница облачности), а также ознакомиться с разнообразными материалами по авиационной метеорологии и подборкой полезных ссылок на эту тему.

Сайт Метеоцентр.Азия посвящён разработке технологий оптимизации авиаметеорологического обслуживания, включая проектирование и перспективное создание нескольких автоматизированных авиаметеорологических систем:
- система выпуска высокодетальных прогностических карт явлений погоды для нижнего воздушного пространства по России и ближнему зарубежью;
- система верификации прогнозов TAF (выпускаемых синоптиками официальных АМСГ РФ и ближнего зарубежья) и AUTOTAF (выпускаемых сайтом Метеоцентр.Азия) - выявление ошибок, онлайн-сопоставление с фактической погодой METAR, автоматическое внесение коррективов в прогнозы при резком отклонении фактической погоды от прогноза, подсчёт оправдываемости прогнозов по элементам и в целом;
- система обработки, анализа и отображения авиаметеорологической информации для применения провайдерами метеорологической информации.

Рекомендуем: Возвращаемся в Гондар и, заселившись в гостиницу.

Погода в Невинномысске - сегодня

Время (UTC), дата Ветер
(°,м/с) 
Видим.   Явления Облачность Т
(°С)
Тd
(°С)
f(%) Тe
(°С)
Pmin
(гПа)
dP
(гПа)
Po
(мм)
O2
(г/м3)
Тmin Tmax R s Состояние
почвы
03 25.06.17 090 (В) 20000 м  {ливн. осадки}  10/0 средняя 
[Ac trans]
+16 +14.5 91 +26  1012.6  0.8  730  275  +15.4      влажная 
06 25.06.17 250 (З) 20000 м  {ливн. осадки}  10/0 средняя 
[Ac trans]
+20.7 +14.4 67 +29  1013  730  271           
09 25.06.17 280 (З) 20000 м    10/10 1000 м кучево-дожд. 
[Cb calv]
+21.4 +15.4 69 +31  1013.9  731  270           
12 25.06.17 280 (З) 20000 м    8/8 1000 м кучево-дожд. 
[Cb calv]
+23.7 +15.3 59 +34  1013.8  0.2  731  268           
15 25.06.17 300 (СЗ) 20000 м    9/6 1000 м кучево-дожд., верхняя 
[Cb calv|Ci fib]
+23.6 +14.1 55 +31  1015.1  1.1  732  269    +24.3       
18 25.06.17 150 (ЮВ) 20000 м    ясно 
+18.1 +13.3 74 +26  1017.2  1.4  733  274           
21 25.06.17 тихо ()   20000 м    ясно 
+14.1 +12.4 89 +19  1018.6  0.8  734  279           
00 26.06.17 010 (С) 20000 м    ясно 
+13.1 +12 93 +18  1018.5  -0.2  734  280           
03 26.06.17 тихо ()   20000 м    ясно 
+14.2 +13.2 94 +20  1018  -0.3  733  278  +12.1        сухая 
06 26.06.17 060 (СВ) 20000 м    ясно 
+23.7 +13.1 51 +30  1015.9  -0.7  733  269           
09 26.06.17 050 (СВ) 20000 м    ясно 
+26 +13 45 +32  1015.2  -0.4  732  267           
12 26.06.17 080 (В) 20000 м    ясно 
+27.4 +13.2 42 +34  1014  -1  732  265           
15 26.06.17 070 (В) 20000 м    ясно 
+26.8 +13.1 43 +33  1013.1  -0.9  731  266    +27.9       
18 26.06.17 130 (ЮВ) 20000 м    ясно 
+21.3 +14.5 65 +30  1013.4  -0.4  731  270           
21 26.06.17 060 (СВ) 20000 м    ясно 
+17.3 +14.1 81 +26  1013.3  -0.6  730  274           
00 27.06.17 030 (СВ) 20000 м    ясно 
+16.3 +13.2 82 +23  1013.2  -0.3  730  275           
03 27.06.17 060 (СВ) 20000 м    ясно 
+16.2 +13.4 83 +24  1013.6  0.4  730  275  +14.7        сухая 
06 27.06.17 060 (СВ) 20000 м    ясно 
+22.9 +15.8 64 +34  1011.5  -1.1  730  268           
09 27.06.17 070 (В) 20000 м    ясно 
+27.5 +16.9 52 +40  1011.5  -1.1  730  263           
12 27.06.17 070 (В) 20000 м    4/0 верхняя 
[Ci sp]
+28.6 +15.7 46 +39  1009.1  -1.1  728  262           
15 27.06.17 070 (В) 20000 м    8/0 верхняя 
[Ci]
+27.1 +17.6 56 +42  1009.4  0.2  728  263    +29       
18 27.06.17 090 (В) 20000 м  в посл. час гроза{ливн. осадки}  9/9 1000 м кучево-дожд. 
[Cb calv]
+23.3 +15.9 63 +34  1010.1  0.2  729  267           
21 27.06.17 тихо ()   20000 м  {гроза, ливн. осадки}  ясно 
+20.8 +15.5 72 +31  1010.2  -0.2  728  269           
00 28.06.17 200 (Ю) 20000 м    ясно 
+17.9 +15.8 88 +30  1010.6  0.1  728  272           
03 28.06.17 тихо ()   20000 м    ясно 
+18.4 +15.3 82 +28  1011.9  1.3  729  272  +16.9        сухая 
Время (UTC), дата Ветер
(°,м/с) 
Видим.   Явления Облачность Т
(°С)
Тd
(°С)
f(%) Тe
(°С)
Pmin
(гПа)
dP
(гПа)
Po
(мм)
O2
(г/м3)
Тmin Tmax R s Состояние
почвы

Для получения пояснительной информации подведите курсор к названию столбца.

ПОГОДА в Невинномысске - архив

Всё, что Вы хотите узнать о погоде в Невинномысске - удобно и подробно!

Выберите нужную дату (начиная с 1 января 2015* года) и нажмите кнопку "Найти".
Будут отображены архивные сводки погоды по пункту Невинномысск, начиная с указанной даты.


Отображать данные в формате CSV (для использования в таблицах Excel)


Внимание! Наш архив погоды предназначен исключительно для личного некоммерческого использования в познавательных целях. Если Вам необходимы официальные справки о состоянии погоды (для производственных, юридических, коммерческих и т.п. целей), обращайтесь в органы Росгидромета.

*Примечание: данная дата относится к архиву по метеостанциям СССР (Россия, СНГ, Балтия).
Архив по метеостанциям Зарубежной Европы и Азии (кроме Китая) хранится 10 дней, по другим регионам земного шара (Китай, Африка, Америка, Австралия, Океания) - 1 день.

Невинномысск - район местоположения метеостанции


Название, широта, долгота, высота метеостанции:
Невинномысск 44.6°ш. 42°д. 343 м над ур. моря [Российская Федерация]

Дополнительная информация

В oтличие oт бoльшинства пoгoдных сайтoв мы публикуем пoдрoбную метеoинфoрмацию в детальнoм прoфессиoнальнoм фoрмате.

Характеристики температуры и влажнoсти вoздуха измеряются на высoте 2 м в тени вдали oт зданий и деревьев.
Скoрoсть ветра измеряется на высoте 10 м (на урoвне рoста челoвека скoрoсть ветра ниже в 1.5-2 раза). Если метеoстанция нахoдится в гoрoде или в лесу, тo скoрoсть ветра занижена на 2-4 м/с пo сравнению с oткрытым местoм. Скoрoсть ветра над акватoриями крупных рек и oзёр, а также на вершинах хoлмoв на 2-5 м/с выше, чем в oбычных услoвиях.
Атмoсфернoе давление в разных тoчках местнoсти мoжет значительнo oтличаться oт давления на метеoстанции, в зависимoсти oт услoвий рельефа (при пoдъёме на 10 м давление пoнижается примернo на 1 мм рт.ст.).